Location: Carimao
(10.4546°N, 66.7419°W)
Time: 07:43:25
(UTC+00:00)

Ariane 3 Deb - Pass Details

Date: 19 May 2024
Orbit: 474 x 17625 km, 6.7° (Epoch: 23 June)

Event Time Altitude Azimuth Distance (km) Brightness Sun altitude
Rises 23:21:42 0° 254° (WSW) 4,402 7.8 -9.8°
Reaches altitude 10° 23:25:54 10° 244° (WSW) 2,426 6.2 -10.7°
Maximum altitude 23:29:57 30° 180° (S) 958 3.3 -11.6°
Enters shadow 23:31:41 18° 128° (SE) 1,223 3.5 -12.0°
